Time,TemperatureF,DewpointF,PressureIn,WindDirection,WindDirectionDegrees,WindSpeedMPH,WindSpeedGustMPH,Humidity,HourlyPrecipIn,Conditions,Clouds,dailyrainin,SoftwareType,DateUTC
2013-08-18 00:00:00,59.7,56.1,30.08,WSW,243,1.0,6.0,88,0.00,,,0.00,Wunderground v.1.15,2013-08-18 10:00:00,
2013-08-18 00:05:00,59.7,56.1,30.08,WSW,243,1.0,6.0,88,0.00,,,0.00,Wunderground v.1.15,2013-08-18 10:05:00,
2013-08-18 00:10:00,59.7,56.5,30.08,WSW,243,2.0,6.0,89,0.00,,,0.00,Wunderground v.1.15,2013-08-18 10:10:00,
2013-08-18 00:15:00,59.7,56.5,30.09,WSW,243,2.0,6.0,89,0.00,,,0.00,Wunderground v.1.15,2013-08-18 10:15:00,
2013-08-18 00:20:00,59.8,56.2,30.09,WSW,244,2.0,2.0,88,0.00,,,0.00,Wunderground v.1.15,2013-08-18 10:20:00,
2013-08-18 00:30:00,59.5,56.3,30.09,WSW,243,1.0,6.0,89,0.00,,,0.00,Wunderground v.1.15,2013-08-18 10:30:00,
2013-08-18 00:35:00,59.5,56.3,30.09,WSW,244,0.0,6.0,89,0.00,,,0.00,Wunderground v.1.15,2013-08-18 10:35:00,
2013-08-18 00:40:00,59.4,56.2,30.09,WSW,244,0.0,6.0,89,0.00,,,0.00,Wunderground v.1.15,2013-08-18 10:40:00,
2013-08-18 00:45:00,59.5,56.6,30.09,WSW,244,0.0,6.0,90,0.00,,,0.00,Wunderground v.1.15,2013-08-18 10:45:00,
2013-08-18 00:50:00,59.5,56.6,30.09,WSW,243,0.0,6.0,90,0.00,,,0.00,Wunderground v.1.15,2013-08-18 10:50:00,
2013-08-18 01:00:00,59.6,57.0,30.09,WSW,243,1.0,6.0,91,0.00,,,0.00,Wunderground v.1.15,2013-08-18 11:00:00,
2013-08-18 01:05:00,59.6,57.3,30.09,WSW,244,1.0,6.0,92,0.00,,,0.00,Wunderground v.1.15,2013-08-18 11:05:00,
2013-08-18 01:10:00,59.3,56.7,30.09,WSW,243,0.0,6.0,91,0.00,,,0.00,Wunderground v.1.15,2013-08-18 11:10:00,
2013-08-18 01:15:00,59.1,56.5,30.09,WSW,243,0.0,6.0,91,0.00,,,0.00,Wunderground v.1.15,2013-08-18 11:15:00,
2013-08-18 01:20:00,58.9,56.3,30.09,WSW,243,0.0,6.0,91,0.00,,,0.00,Wunderground v.1.15,2013-08-18 11:20:00,
2013-08-18 01:25:00,58.9,56.6,30.10,WSW,244,0.0,6.0,92,0.00,,,0.00,Wunderground v.1.15,2013-08-18 11:25:00,
2013-08-18 01:35:00,58.4,55.8,30.10,WSW,243,0.0,6.0,91,0.00,,,0.00,Wunderground v.1.15,2013-08-18 11:35:00,
2013-08-18 01:40:00,58.4,55.8,30.10,WSW,243,0.0,6.0,91,0.00,,,0.00,Wunderground v.1.15,2013-08-18 11:40:00,
2013-08-18 01:45:00,58.3,55.7,30.10,WSW,243,0.0,6.0,91,0.00,,,0.00,Wunderground v.1.15,2013-08-18 11:45:00,
2013-08-18 01:50:00,58.3,56.0,30.10,WSW,243,0.0,6.0,92,0.00,,,0.00,Wunderground v.1.15,2013-08-18 11:50:00,
2013-08-18 01:55:00,58.3,56.0,30.09,WSW,244,0.0,6.0,92,0.00,,,0.00,Wunderground v.1.15,2013-08-18 11:55:00,
2013-08-18 02:05:00,58.2,55.9,30.10,WSW,244,0.0,6.0,92,0.00,,,0.00,Wunderground v.1.15,2013-08-18 12:05:00,
2013-08-18 02:10:00,58.2,55.9,30.10,WSW,244,0.0,6.0,92,0.00,,,0.00,Wunderground v.1.15,2013-08-18 12:10:00,
2013-08-18 02:15:00,58.1,55.8,30.10,WSW,243,0.0,6.0,92,0.00,,,0.00,Wunderground v.1.15,2013-08-18 12:15:00,
2013-08-18 02:20:00,58.1,55.8,30.10,WSW,244,0.0,6.0,92,0.00,,,0.00,Wunderground v.1.15,2013-08-18 12:20:00,
2013-08-18 02:25:00,58.0,55.7,30.10,WSW,243,0.0,6.0,92,0.00,,,0.00,Wunderground v.1.15,2013-08-18 12:25:00,
2013-08-18 02:30:00,58.1,55.8,30.10,WSW,244,0.0,6.0,92,0.00,,,0.00,Wunderground v.1.15,2013-08-18 12:30:00,
2013-08-18 02:35:00,58.0,55.7,30.10,WSW,244,0.0,6.0,92,0.00,,,0.00,Wunderground v.1.15,2013-08-18 12:35:00,
2013-08-18 02:40:00,58.0,55.7,30.10,WSW,244,0.0,6.0,92,0.00,,,0.00,Wunderground v.1.15,2013-08-18 12:40:00,
2013-08-18 02:45:00,58.0,55.7,30.10,WSW,244,0.0,6.0,92,0.00,,,0.00,Wunderground v.1.15,2013-08-18 12:45:00,
2013-08-18 02:50:00,57.8,55.5,30.10,WSW,244,0.0,6.0,92,0.00,,,0.00,Wunderground v.1.15,2013-08-18 12:50:00,
2013-08-18 02:55:00,57.6,55.3,30.10,WSW,244,0.0,6.0,92,0.00,,,0.00,Wunderground v.1.15,2013-08-18 12:55:00,
2013-08-18 03:00:00,57.5,55.2,30.10,WSW,243,0.0,6.0,92,0.00,,,0.00,Wunderground v.1.15,2013-08-18 13:00:00,
2013-08-18 03:10:00,57.5,55.5,30.11,WSW,244,1.0,6.0,93,0.00,,,0.00,Wunderground v.1.15,2013-08-18 13:10:00,
2013-08-18 03:15:00,57.7,55.7,30.11,WSW,244,1.0,6.0,93,0.00,,,0.00,Wunderground v.1.15,2013-08-18 13:15:00,
2013-08-18 03:20:00,57.8,55.8,30.11,WSW,244,1.0,6.0,93,0.00,,,0.00,Wunderground v.1.15,2013-08-18 13:20:00,
2013-08-18 03:25:00,58.0,56.0,30.11,WSW,244,1.0,6.0,93,0.00,,,0.00,Wunderground v.1.15,2013-08-18 13:25:00,
2013-08-18 03:30:00,58.2,56.2,30.11,WSW,244,1.0,1.0,93,0.00,,,0.00,Wunderground v.1.15,2013-08-18 13:30:00,
2013-08-18 03:35:00,58.4,56.1,30.11,WSW,243,1.0,6.0,92,0.00,,,0.00,Wunderground v.1.15,2013-08-18 13:35:00,
2013-08-18 03:40:00,58.6,56.3,30.11,WSW,244,1.0,6.0,92,0.00,,,0.00,Wunderground v.1.15,2013-08-18 13:40:00,
2013-08-18 03:45:00,58.8,56.2,30.11,WSW,244,2.0,6.0,91,0.00,,,0.00,Wunderground v.1.15,2013-08-18 13:45:00,
2013-08-18 03:50:00,59.0,56.4,30.12,WSW,243,2.0,2.0,91,0.00,,,0.00,Wunderground v.1.15,2013-08-18 13:50:00,
2013-08-18 03:55:00,59.0,56.4,30.12,WSW,243,2.0,6.0,91,0.00,,,0.00,Wunderground v.1.15,2013-08-18 13:55:00,
2013-08-18 04:00:00,59.1,56.5,30.12,WSW,243,2.0,2.0,91,0.00,,,0.00,Wunderground v.1.15,2013-08-18 14:00:00,
2013-08-18 04:05:00,59.0,56.4,30.12,WSW,244,2.0,3.0,91,0.00,,,0.00,Wunderground v.1.15,2013-08-18 14:05:00,
2013-08-18 04:15:00,58.9,56.3,30.12,WSW,244,3.0,6.0,91,0.00,,,0.00,Wunderground v.1.15,2013-08-18 14:15:00,
2013-08-18 04:20:00,59.0,56.4,30.12,WSW,243,3.0,6.0,91,0.00,,,0.00,Wunderground v.1.15,2013-08-18 14:20:00,
2013-08-18 04:25:00,59.2,56.3,30.12,WSW,243,3.0,6.0,90,0.00,,,0.00,Wunderground v.1.15,2013-08-18 14:25:00,
2013-08-18 04:30:00,59.3,56.4,30.12,WSW,244,2.0,6.0,90,0.00,,,0.00,Wunderground v.1.15,2013-08-18 14:30:00,
2013-08-18 04:35:00,59.6,56.7,30.12,WSW,244,2.0,6.0,90,0.00,,,0.00,Wunderground v.1.15,2013-08-18 14:35:00,
2013-08-18 04:45:00,60.0,56.7,30.13,WSW,244,2.0,3.0,89,0.00,,,0.00,Wunderground v.1.15,2013-08-18 14:45:00,
2013-08-18 04:50:00,60.2,56.6,30.13,WSW,244,2.0,2.0,88,0.00,,,0.00,Wunderground v.1.15,2013-08-18 14:50:00,
2013-08-18 04:55:00,60.4,56.5,30.12,WSW,243,2.0,6.0,87,0.00,,,0.00,Wunderground v.1.15,2013-08-18 14:55:00,
2013-08-18 05:00:00,60.9,57.0,30.12,WSW,243,1.0,6.0,87,0.00,,,0.00,Wunderground v.1.15,2013-08-18 15:00:00,
2013-08-18 05:05:00,61.5,57.3,30.12,WSW,243,1.0,6.0,86,0.00,,,0.00,Wunderground v.1.15,2013-08-18 15:05:00,
2013-08-18 05:10:00,62.2,57.3,30.12,WSW,243,1.0,1.0,84,0.00,,,0.00,Wunderground v.1.15,2013-08-18 15:10:00,
2013-08-18 05:20:00,64.1,58.1,30.12,WSW,244,0.0,6.0,81,0.00,,,0.00,Wunderground v.1.15,2013-08-18 15:20:00,
2013-08-18 05:25:00,65.2,58.2,30.12,WSW,244,0.0,6.0,78,0.00,,,0.00,Wunderground v.1.15,2013-08-18 15:25:00,
2013-08-18 05:30:00,66.0,58.2,30.12,WSW,244,0.0,6.0,76,0.00,,,0.00,Wunderground v.1.15,2013-08-18 15:30:00,
2013-08-18 05:35:00,67.5,58.5,30.12,WSW,244,0.0,6.0,73,0.00,,,0.00,Wunderground v.1.15,2013-08-18 15:35:00,
2013-08-18 05:40:00,67.7,57.6,30.12,WSW,243,1.0,6.0,70,0.00,,,0.00,Wunderground v.1.15,2013-08-18 15:40:00,
2013-08-18 05:50:00,66.8,57.1,30.12,WSW,244,1.0,1.0,71,0.00,,,0.00,Wunderground v.1.15,2013-08-18 15:50:00,
2013-08-18 05:55:00,66.6,57.3,30.12,WSW,243,2.0,2.0,72,0.00,,,0.00,Wunderground v.1.15,2013-08-18 15:55:00,
2013-08-18 06:00:00,66.5,57.6,30.12,WSW,243,2.0,2.0,73,0.00,,,0.00,Wunderground v.1.15,2013-08-18 16:00:00,
2013-08-18 06:05:00,67.0,58.1,30.12,WSW,244,1.0,6.0,73,0.00,,,0.00,Wunderground v.1.15,2013-08-18 16:05:00,
2013-08-18 06:10:00,67.3,58.3,30.13,WSW,243,1.0,6.0,73,0.00,,,0.00,Wunderground v.1.15,2013-08-18 16:10:00,
2013-08-18 06:15:00,66.8,57.9,30.13,WSW,243,2.0,6.0,73,0.00,,,0.00,Wunderground v.1.15,2013-08-18 16:15:00,
2013-08-18 06:25:00,67.1,58.2,30.13,WSW,243,2.0,6.0,73,0.00,,,0.00,Wunderground v.1.15,2013-08-18 16:25:00,
2013-08-18 06:30:00,68.4,58.6,30.13,WSW,243,1.0,6.0,71,0.00,,,0.00,Wunderground v.1.15,2013-08-18 16:30:00,
2013-08-18 06:35:00,67.6,57.9,30.12,WSW,243,2.0,6.0,71,0.00,,,0.00,Wunderground v.1.15,2013-08-18 16:35:00,
2013-08-18 06:40:00,67.5,58.2,30.13,WSW,244,2.0,6.0,72,0.00,,,0.00,Wunderground v.1.15,2013-08-18 16:40:00,
2013-08-18 06:45:00,67.7,58.0,30.13,WSW,243,2.0,6.0,71,0.00,,,0.00,Wunderground v.1.15,2013-08-18 16:45:00,
2013-08-18 06:55:00,67.7,58.3,30.12,WSW,243,2.0,6.0,72,0.00,,,0.00,Wunderground v.1.15,2013-08-18 16:55:00,
2013-08-18 07:00:00,68.4,58.6,30.12,WSW,243,1.0,1.0,71,0.00,,,0.00,Wunderground v.1.15,2013-08-18 17:00:00,
2013-08-18 07:05:00,69.3,58.3,30.12,WSW,244,1.0,6.0,68,0.00,,,0.00,Wunderground v.1.15,2013-08-18 17:05:00,
2013-08-18 07:10:00,69.5,58.5,30.12,WSW,244,1.0,6.0,68,0.00,,,0.00,Wunderground v.1.15,2013-08-18 17:10:00,
2013-08-18 07:15:00,69.1,58.1,30.12,WSW,243,2.0,6.0,68,0.00,,,0.00,Wunderground v.1.15,2013-08-18 17:15:00,
2013-08-18 07:20:00,69.4,58.4,30.12,WSW,244,2.0,6.0,68,0.00,,,0.00,Wunderground v.1.15,2013-08-18 17:20:00,
2013-08-18 07:25:00,69.7,58.7,30.12,WSW,244,2.0,6.0,68,0.00,,,0.00,Wunderground v.1.15,2013-08-18 17:25:00,
2013-08-18 07:30:00,70.2,58.7,30.12,WSW,244,1.0,6.0,67,0.00,,,0.00,Wunderground v.1.15,2013-08-18 17:30:00,
2013-08-18 07:35:00,71.0,59.5,30.12,WSW,243,1.0,6.0,67,0.00,,,0.00,Wunderground v.1.15,2013-08-18 17:35:00,
2013-08-18 07:45:00,70.7,58.8,30.12,WSW,244,2.0,6.0,66,0.00,,,0.00,Wunderground v.1.15,2013-08-18 17:45:00,
2013-08-18 07:50:00,71.1,58.7,30.13,WSW,243,2.0,6.0,65,0.00,,,0.00,Wunderground v.1.15,2013-08-18 17:50:00,
2013-08-18 08:00:00,71.1,58.7,30.12,WSW,243,2.0,6.0,65,0.00,,,0.00,Wunderground v.1.15,2013-08-18 18:00:00,
2013-08-18 08:05:00,71.0,58.6,30.13,WSW,243,2.0,6.0,65,0.00,,,0.00,Wunderground v.1.15,2013-08-18 18:05:00,
2013-08-18 08:10:00,71.1,58.3,30.13,WSW,243,2.0,6.0,64,0.00,,,0.00,Wunderground v.1.15,2013-08-18 18:10:00,
2013-08-18 08:15:00,71.3,58.9,30.12,WSW,243,2.0,6.0,65,0.00,,,0.00,Wunderground v.1.15,2013-08-18 18:15:00,
2013-08-18 08:20:00,71.0,58.6,30.12,WSW,244,4.0,4.0,65,0.00,,,0.00,Wunderground v.1.15,2013-08-18 18:20:00,
2013-08-18 08:25:00,70.7,58.4,30.12,WSW,243,4.0,6.0,65,0.00,,,0.00,Wunderground v.1.15,2013-08-18 18:25:00,
2013-08-18 08:35:00,71.2,58.8,30.11,WSW,243,3.0,6.0,65,0.00,,,0.00,Wunderground v.1.15,2013-08-18 18:35:00,
2013-08-18 08:40:00,72.2,59.3,30.11,WSW,243,3.0,3.0,64,0.00,,,0.00,Wunderground v.1.15,2013-08-18 18:40:00,
2013-08-18 08:45:00,72.9,59.1,30.11,WSW,243,2.0,5.0,62,0.00,,,0.00,Wunderground v.1.15,2013-08-18 18:45:00,
2013-08-18 08:50:00,72.1,58.4,30.11,WSW,243,3.0,6.0,62,0.00,,,0.00,Wunderground v.1.15,2013-08-18 18:50:00,
2013-08-18 08:55:00,72.3,59.0,30.11,WSW,243,4.0,6.0,63,0.00,,,0.00,Wunderground v.1.15,2013-08-18 18:55:00,
2013-08-18 09:05:00,73.2,58.9,30.11,WSW,243,2.0,6.0,61,0.00,,,0.00,Wunderground v.1.15,2013-08-18 19:05:00,
2013-08-18 09:10:00,73.5,59.2,30.11,WSW,243,2.0,2.0,61,0.00,,,0.00,Wunderground v.1.15,2013-08-18 19:10:00,
2013-08-18 09:15:00,74.7,58.9,30.11,WSW,243,1.0,3.0,58,0.00,,,0.00,Wunderground v.1.15,2013-08-18 19:15:00,
2013-08-18 09:20:00,74.6,58.4,30.11,WSW,243,2.0,2.0,57,0.00,,,0.00,Wunderground v.1.15,2013-08-18 19:20:00,
2013-08-18 09:25:00,75.4,59.1,30.11,WSW,243,2.0,6.0,57,0.00,,,0.00,Wunderground v.1.15,2013-08-18 19:25:00,
2013-08-18 09:30:00,76.2,58.9,30.11,WSW,243,1.0,6.0,55,0.00,,,0.00,Wunderground v.1.15,2013-08-18 19:30:00,
2013-08-18 09:40:00,76.6,58.7,30.11,WSW,243,1.0,6.0,54,0.00,,,0.00,Wunderground v.1.15,2013-08-18 19:40:00,
2013-08-18 09:45:00,77.0,59.1,30.10,WSW,243,1.0,6.0,54,0.00,,,0.00,Wunderground v.1.15,2013-08-18 19:45:00,
2013-08-18 09:50:00,77.4,58.9,30.10,WSW,243,2.0,6.0,53,0.00,,,0.00,Wunderground v.1.15,2013-08-18 19:50:00,
2013-08-18 09:55:00,76.9,59.0,30.10,WSW,243,2.0,6.0,54,0.00,,,0.00,Wunderground v.1.15,2013-08-18 19:55:00,
2013-08-18 10:00:00,77.6,58.0,30.10,WSW,243,2.0,2.0,51,0.00,,,0.00,Wunderground v.1.15,2013-08-18 20:00:00,
2013-08-18 10:05:00,78.1,57.9,30.10,WSW,243,2.0,6.0,50,0.00,,,0.00,Wunderground v.1.15,2013-08-18 20:05:00,
2013-08-18 10:15:00,79.1,58.3,30.09,WSW,243,1.0,6.0,49,0.00,,,0.00,Wunderground v.1.15,2013-08-18 20:15:00,
2013-08-18 10:20:00,79.4,58.0,30.09,WSW,243,2.0,6.0,48,0.00,,,0.00,Wunderground v.1.15,2013-08-18 20:20:00,
2013-08-18 10:25:00,78.9,58.7,30.09,WSW,243,3.0,6.0,50,0.00,,,0.00,Wunderground v.1.15,2013-08-18 20:25:00,
2013-08-18 10:30:00,79.0,57.6,30.09,WSW,243,2.0,6.0,48,0.00,,,0.00,Wunderground v.1.15,2013-08-18 20:30:00,
2013-08-18 10:35:00,78.8,55.7,30.09,WSW,243,2.0,6.0,45,0.00,,,0.00,Wunderground v.1.15,2013-08-18 20:35:00,
2013-08-18 10:45:00,79.2,56.6,30.09,WSW,243,2.0,6.0,46,0.00,,,0.00,Wunderground v.1.15,2013-08-18 20:45:00,
2013-08-18 10:50:00,79.8,57.2,30.08,WSW,244,2.0,6.0,46,0.00,,,0.00,Wunderground v.1.15,2013-08-18 20:50:00,
2013-08-18 10:55:00,80.6,57.3,30.08,WSW,243,2.0,6.0,45,0.00,,,0.00,Wunderground v.1.15,2013-08-18 20:55:00,
2013-08-18 11:00:00,81.1,58.4,30.08,WSW,243,2.0,6.0,46,0.00,,,0.00,Wunderground v.1.15,2013-08-18 21:00:00,
2013-08-18 11:05:00,80.7,57.4,30.08,WSW,243,2.0,6.0,45,0.00,,,0.00,Wunderground v.1.15,2013-08-18 21:05:00,
2013-08-18 11:10:00,79.8,58.9,30.08,WSW,243,2.0,6.0,49,0.00,,,0.00,Wunderground v.1.15,2013-08-18 21:10:00,
2013-08-18 11:20:00,79.9,58.5,30.08,WSW,243,4.0,4.0,48,0.00,,,0.00,Wunderground v.1.15,2013-08-18 21:20:00,
2013-08-18 11:25:00,80.3,58.8,30.08,WSW,243,2.0,6.0,48,0.00,,,0.00,Wunderground v.1.15,2013-08-18 21:25:00,
2013-08-18 11:30:00,80.8,58.7,30.08,WSW,243,1.0,6.0,47,0.00,,,0.00,Wunderground v.1.15,2013-08-18 21:30:00,
2013-08-18 11:35:00,81.4,58.6,30.08,WSW,243,2.0,6.0,46,0.00,,,0.00,Wunderground v.1.15,2013-08-18 21:35:00,
2013-08-18 11:40:00,81.6,60.0,30.07,WSW,243,2.0,6.0,48,0.00,,,0.00,Wunderground v.1.15,2013-08-18 21:40:00,
2013-08-18 11:45:00,82.4,59.5,30.07,WSW,243,3.0,6.0,46,0.00,,,0.00,Wunderground v.1.15,2013-08-18 21:45:00,
2013-08-18 11:50:00,82.1,59.9,30.07,WSW,243,4.0,6.0,47,0.00,,,0.00,Wunderground v.1.15,2013-08-18 21:50:00,
2013-08-18 11:55:00,81.9,59.1,30.07,WSW,243,4.0,6.0,46,0.00,,,0.00,Wunderground v.1.15,2013-08-18 21:55:00,
2013-08-18 12:00:00,81.8,59.6,30.07,WSW,243,4.0,6.0,47,0.00,,,0.00,Wunderground v.1.15,2013-08-18 22:00:00,
2013-08-18 12:05:00,82.0,59.8,30.07,WSW,243,4.0,6.0,47,0.00,,,0.00,Wunderground v.1.15,2013-08-18 22:05:00,
2013-08-18 12:15:00,82.9,60.0,30.06,WSW,243,2.0,6.0,46,0.00,,,0.00,Wunderground v.1.15,2013-08-18 22:15:00,
2013-08-18 12:25:00,83.1,58.9,30.06,WSW,243,2.0,6.0,44,0.00,,,0.00,Wunderground v.1.15,2013-08-18 22:25:00,
2013-08-18 12:30:00,83.7,60.1,30.05,WSW,243,1.0,6.0,45,0.00,,,0.00,Wunderground v.1.15,2013-08-18 22:30:00,
2013-08-18 12:35:00,83.3,59.1,30.05,WSW,243,2.0,6.0,44,0.00,,,0.00,Wunderground v.1.15,2013-08-18 22:35:00,
2013-08-18 12:40:00,83.5,60.5,30.05,WSW,244,3.0,6.0,46,0.00,,,0.00,Wunderground v.1.15,2013-08-18 22:40:00,
2013-08-18 12:45:00,83.6,60.0,30.05,WSW,243,3.0,6.0,45,0.00,,,0.00,Wunderground v.1.15,2013-08-18 22:45:00,
2013-08-18 12:55:00,84.1,59.8,30.05,WSW,243,2.0,4.0,44,0.00,,,0.00,Wunderground v.1.15,2013-08-18 22:55:00,
2013-08-18 13:00:00,83.8,59.6,30.04,WSW,243,2.0,6.0,44,0.00,,,0.00,Wunderground v.1.15,2013-08-18 23:00:00,
2013-08-18 13:05:00,85.0,60.0,30.04,WSW,245,2.0,6.0,43,0.00,,,0.00,Wunderground v.1.15,2013-08-18 23:05:00,
2013-08-18 13:10:00,85.8,60.7,30.04,WSW,245,1.0,6.0,43,0.00,,,0.00,Wunderground v.1.15,2013-08-18 23:10:00,
2013-08-18 13:15:00,85.6,59.9,30.04,WSW,245,3.0,6.0,42,0.00,,,0.00,Wunderground v.1.15,2013-08-18 23:15:00,
2013-08-18 13:20:00,85.3,59.6,30.04,WSW,245,5.0,5.0,42,0.00,,,0.00,Wunderground v.1.15,2013-08-18 23:20:00,
2013-08-18 13:30:00,84.7,59.7,30.04,WSW,245,3.0,6.0,43,0.00,,,0.00,Wunderground v.1.15,2013-08-18 23:30:00,
2013-08-18 13:35:00,84.0,59.7,30.03,WSW,245,3.0,6.0,44,0.00,,,0.00,Wunderground v.1.15,2013-08-18 23:35:00,
2013-08-18 13:40:00,84.0,59.1,30.03,WSW,245,2.0,2.0,43,0.00,,,0.00,Wunderground v.1.15,2013-08-18 23:40:00,
2013-08-18 13:45:00,85.3,60.9,30.03,WSW,245,2.0,4.0,44,0.00,,,0.00,Wunderground v.1.15,2013-08-18 23:45:00,
2013-08-18 13:50:00,85.1,60.1,30.03,WSW,245,2.0,6.0,43,0.00,,,0.00,Wunderground v.1.15,2013-08-18 23:50:00,
2013-08-18 14:00:00,85.8,60.1,30.02,WSW,245,1.0,6.0,42,0.00,,,0.00,Wunderground v.1.15,2013-08-19 00:00:00,
2013-08-18 14:05:00,85.6,59.9,30.02,WSW,245,2.0,6.0,42,0.00,,,0.00,Wunderground v.1.15,2013-08-19 00:05:00,
2013-08-18 14:10:00,85.9,61.5,30.02,WSW,245,2.0,6.0,44,0.00,,,0.00,Wunderground v.1.15,2013-08-19 00:10:00,
2013-08-18 14:15:00,85.9,60.8,30.02,WSW,245,2.0,6.0,43,0.00,,,0.00,Wunderground v.1.15,2013-08-19 00:15:00,
2013-08-18 14:20:00,85.8,60.1,30.02,WSW,245,3.0,6.0,42,0.00,,,0.00,Wunderground v.1.15,2013-08-19 00:20:00,
2013-08-18 14:25:00,84.9,59.9,30.02,WSW,245,3.0,6.0,43,0.00,,,0.00,Wunderground v.1.15,2013-08-19 00:25:00,
2013-08-18 14:30:00,84.7,60.4,30.02,WSW,245,2.0,6.0,44,0.00,,,0.00,Wunderground v.1.15,2013-08-19 00:30:00,
2013-08-18 14:35:00,84.5,60.2,30.01,WSW,245,2.0,6.0,44,0.00,,,0.00,Wunderground v.1.15,2013-08-19 00:35:00,
2013-08-18 14:40:00,84.4,60.1,30.01,WSW,245,3.0,3.0,44,0.00,,,0.00,Wunderground v.1.15,2013-08-19 00:40:00,
2013-08-18 14:45:00,84.6,60.9,30.01,WSW,245,2.0,6.0,45,0.00,,,0.00,Wunderground v.1.15,2013-08-19 00:45:00,
2013-08-18 14:50:00,85.4,61.0,30.01,WSW,245,1.0,1.0,44,0.00,,,0.00,Wunderground v.1.15,2013-08-19 00:50:00,
2013-08-18 14:55:00,85.4,60.4,30.01,WSW,245,1.0,3.0,43,0.00,,,0.00,Wunderground v.1.15,2013-08-19 00:55:00,
2013-08-18 15:00:00,85.2,61.5,30.01,WSW,245,2.0,2.0,45,0.00,,,0.00,Wunderground v.1.15,2013-08-19 01:00:00,
2013-08-18 15:05:00,85.4,59.7,30.01,WSW,245,1.0,3.0,42,0.00,,,0.00,Wunderground v.1.15,2013-08-19 01:05:00,
2013-08-18 15:10:00,84.4,59.5,30.01,WSW,245,2.0,6.0,43,0.00,,,0.00,Wunderground v.1.15,2013-08-19 01:10:00,
2013-08-18 15:15:00,83.9,59.0,30.01,WSW,245,3.0,6.0,43,0.00,,,0.00,Wunderground v.1.15,2013-08-19 01:15:00,
2013-08-18 15:20:00,83.9,60.9,30.01,WSW,245,2.0,6.0,46,0.00,,,0.00,Wunderground v.1.15,2013-08-19 01:20:00,
2013-08-18 15:25:00,83.6,59.4,30.01,WSW,245,2.0,6.0,44,0.00,,,0.00,Wunderground v.1.15,2013-08-19 01:25:00,
2013-08-18 15:35:00,83.3,59.7,30.00,WSW,245,4.0,5.0,45,0.00,,,0.00,Wunderground v.1.15,2013-08-19 01:35:00,
2013-08-18 15:45:00,83.4,61.1,30.00,WSW,245,3.0,6.0,47,0.00,,,0.00,Wunderground v.1.15,2013-08-19 01:45:00,
2013-08-18 15:50:00,83.4,59.2,30.00,WSW,245,3.0,6.0,44,0.00,,,0.00,Wunderground v.1.15,2013-08-19 01:50:00,
2013-08-18 15:55:00,83.3,59.1,30.00,WSW,245,3.0,6.0,44,0.00,,,0.00,Wunderground v.1.15,2013-08-19 01:55:00,
2013-08-18 16:00:00,83.0,62.4,30.00,WSW,245,3.0,3.0,50,0.00,,,0.00,Wunderground v.1.15,2013-08-19 02:00:00,
2013-08-18 16:10:00,82.5,64.7,30.00,WSW,245,1.0,1.0,55,0.00,,,0.00,Wunderground v.1.15,2013-08-19 02:10:00,
2013-08-18 16:15:00,82.0,61.0,30.00,WSW,245,1.0,2.0,49,0.00,,,0.00,Wunderground v.1.15,2013-08-19 02:15:00,
2013-08-18 16:20:00,82.3,60.6,30.00,WSW,245,2.0,6.0,48,0.00,,,0.00,Wunderground v.1.15,2013-08-19 02:20:00,
2013-08-18 16:25:00,82.4,60.1,30.00,WSW,245,2.0,6.0,47,0.00,,,0.00,Wunderground v.1.15,2013-08-19 02:25:00,
2013-08-18 16:30:00,82.0,59.2,30.00,WSW,245,1.0,6.0,46,0.00,,,0.00,Wunderground v.1.15,2013-08-19 02:30:00,
2013-08-18 16:35:00,81.5,59.3,30.01,WSW,243,1.0,6.0,47,0.00,,,0.00,Wunderground v.1.15,2013-08-19 02:35:00,
2013-08-18 16:45:00,80.4,60.1,30.00,WSW,243,3.0,6.0,50,0.00,,,0.00,Wunderground v.1.15,2013-08-19 02:45:00,
2013-08-18 16:50:00,79.8,59.5,30.01,WSW,243,3.0,3.0,50,0.00,,,0.00,Wunderground v.1.15,2013-08-19 02:50:00,
2013-08-18 16:55:00,79.7,60.5,30.01,WSW,243,2.0,6.0,52,0.00,,,0.00,Wunderground v.1.15,2013-08-19 02:55:00,
2013-08-18 17:00:00,78.8,60.7,30.01,WSW,243,1.0,1.0,54,0.00,,,0.00,Wunderground v.1.15,2013-08-19 03:00:00,
2013-08-18 17:05:00,78.0,61.5,30.01,WSW,243,0.0,6.0,57,0.00,,,0.00,Wunderground v.1.15,2013-08-19 03:05:00,
2013-08-18 17:10:00,77.5,59.5,30.01,WSW,243,0.0,6.0,54,0.00,,,0.00,Wunderground v.1.15,2013-08-19 03:10:00,
2013-08-18 17:20:00,76.3,61.9,30.02,WSW,243,1.0,1.0,61,0.00,,,0.00,Wunderground v.1.15,2013-08-19 03:20:00,
2013-08-18 17:25:00,75.6,60.7,30.02,WSW,243,1.0,6.0,60,0.00,,,0.00,Wunderground v.1.15,2013-08-19 03:25:00,
2013-08-18 17:30:00,75.2,60.8,30.02,WSW,243,0.0,6.0,61,0.00,,,0.00,Wunderground v.1.15,2013-08-19 03:30:00,
2013-08-18 17:35:00,75.0,61.5,30.02,WSW,243,0.0,6.0,63,0.00,,,0.00,Wunderground v.1.15,2013-08-19 03:35:00,
2013-08-18 17:40:00,74.7,63.9,30.02,WSW,243,1.0,6.0,69,0.00,,,0.00,Wunderground v.1.15,2013-08-19 03:40:00,
2013-08-18 17:45:00,74.1,61.6,30.02,WSW,243,1.0,6.0,65,0.00,,,0.00,Wunderground v.1.15,2013-08-19 03:45:00,
2013-08-18 17:50:00,73.9,61.8,30.03,WSW,243,1.0,1.0,66,0.00,,,0.00,Wunderground v.1.15,2013-08-19 03:50:00,
2013-08-18 17:55:00,73.2,62.8,30.03,WSW,243,1.0,6.0,70,0.00,,,0.00,Wunderground v.1.15,2013-08-19 03:55:00,
2013-08-18 18:00:00,72.7,60.7,30.03,WSW,243,2.0,6.0,66,0.00,,,0.00,Wunderground v.1.15,2013-08-19 04:00:00,
2013-08-18 18:05:00,72.4,60.8,30.03,WSW,243,2.0,6.0,67,0.00,,,0.00,Wunderground v.1.15,2013-08-19 04:05:00,
2013-08-18 18:10:00,72.6,62.3,30.03,WSW,243,2.0,2.0,70,0.00,,,0.00,Wunderground v.1.15,2013-08-19 04:10:00,
2013-08-18 18:15:00,72.1,61.0,30.03,WSW,243,2.0,6.0,68,0.00,,,0.00,Wunderground v.1.15,2013-08-19 04:15:00,
2013-08-18 18:20:00,71.5,61.2,30.04,WSW,244,1.0,6.0,70,0.00,,,0.00,Wunderground v.1.15,2013-08-19 04:20:00,
2013-08-18 18:25:00,71.3,60.6,30.04,WSW,244,2.0,6.0,69,0.00,,,0.00,Wunderground v.1.15,2013-08-19 04:25:00,
2013-08-18 18:30:00,71.3,61.0,30.04,WSW,243,2.0,2.0,70,0.00,,,0.00,Wunderground v.1.15,2013-08-19 04:30:00,
2013-08-18 18:35:00,71.2,60.5,30.04,WSW,243,1.0,6.0,69,0.00,,,0.00,Wunderground v.1.15,2013-08-19 04:35:00,
2013-08-18 18:40:00,71.2,60.5,30.04,WSW,243,1.0,6.0,69,0.00,,,0.00,Wunderground v.1.15,2013-08-19 04:40:00,
2013-08-18 18:45:00,71.1,61.2,30.04,WSW,243,1.0,6.0,71,0.00,,,0.00,Wunderground v.1.15,2013-08-19 04:45:00,
2013-08-18 18:55:00,70.9,60.6,30.05,WSW,243,0.0,6.0,70,0.00,,,0.00,Wunderground v.1.15,2013-08-19 04:55:00,
2013-08-18 19:00:00,70.7,60.0,30.05,WSW,243,0.0,6.0,69,0.00,,,0.00,Wunderground v.1.15,2013-08-19 05:00:00,
2013-08-18 19:05:00,70.6,61.1,30.05,WSW,243,0.0,6.0,72,0.00,,,0.00,Wunderground v.1.15,2013-08-19 05:05:00,
2013-08-18 19:10:00,70.3,61.6,30.05,WSW,243,0.0,6.0,74,0.00,,,0.00,Wunderground v.1.15,2013-08-19 05:10:00,
2013-08-18 19:15:00,69.9,60.5,30.05,WSW,243,0.0,6.0,72,0.00,,,0.00,Wunderground v.1.15,2013-08-19 05:15:00,
2013-08-18 19:25:00,69.5,60.5,30.05,WSW,243,0.0,6.0,73,0.00,,,0.00,Wunderground v.1.15,2013-08-19 05:25:00,
2013-08-18 19:30:00,69.1,60.8,30.05,WSW,243,0.0,6.0,75,0.00,,,0.00,Wunderground v.1.15,2013-08-19 05:30:00,
2013-08-18 19:35:00,68.9,61.4,30.05,WSW,244,0.0,6.0,77,0.00,,,0.00,Wunderground v.1.15,2013-08-19 05:35:00,
2013-08-18 19:40:00,68.6,60.7,30.06,WSW,243,1.0,6.0,76,0.00,,,0.00,Wunderground v.1.15,2013-08-19 05:40:00,
2013-08-18 19:45:00,68.3,60.8,30.06,WSW,244,1.0,6.0,77,0.00,,,0.00,Wunderground v.1.15,2013-08-19 05:45:00,
2013-08-18 19:50:00,68.1,60.2,30.06,WSW,243,1.0,6.0,76,0.00,,,0.00,Wunderground v.1.15,2013-08-19 05:50:00,
2013-08-18 20:00:00,67.7,59.5,30.06,WSW,243,1.0,6.0,75,0.00,,,0.00,Wunderground v.1.15,2013-08-19 06:00:00,
2013-08-18 20:05:00,67.7,59.5,30.06,WSW,244,1.0,6.0,75,0.00,,,0.00,Wunderground v.1.15,2013-08-19 06:05:00,
2013-08-18 20:10:00,67.8,59.2,30.06,WSW,244,2.0,2.0,74,0.00,,,0.00,Wunderground v.1.15,2013-08-19 06:10:00,
2013-08-18 20:15:00,67.8,59.2,30.06,WSW,243,1.0,6.0,74,0.00,,,0.00,Wunderground v.1.15,2013-08-19 06:15:00,
2013-08-18 20:20:00,67.6,59.0,30.06,WSW,244,1.0,6.0,74,0.00,,,0.00,Wunderground v.1.15,2013-08-19 06:20:00,
2013-08-18 20:30:00,67.3,58.7,30.06,WSW,243,2.0,6.0,74,0.00,,,0.00,Wunderground v.1.15,2013-08-19 06:30:00,
2013-08-18 20:35:00,67.2,59.0,30.06,WSW,243,2.0,6.0,75,0.00,,,0.00,Wunderground v.1.15,2013-08-19 06:35:00,
2013-08-18 20:40:00,67.1,58.9,30.07,WSW,243,1.0,1.0,75,0.00,,,0.00,Wunderground v.1.15,2013-08-19 06:40:00,
2013-08-18 20:45:00,66.9,58.7,30.07,WSW,244,1.0,6.0,75,0.00,,,0.00,Wunderground v.1.15,2013-08-19 06:45:00,
2013-08-18 20:50:00,66.8,59.0,30.06,WSW,243,1.0,6.0,76,0.00,,,0.00,Wunderground v.1.15,2013-08-19 06:50:00,
2013-08-18 20:55:00,66.8,58.6,30.06,WSW,243,1.0,6.0,75,0.00,,,0.00,Wunderground v.1.15,2013-08-19 06:55:00,
2013-08-18 21:05:00,66.5,58.7,30.06,WSW,244,0.0,6.0,76,0.00,,,0.00,Wunderground v.1.15,2013-08-19 07:05:00,
2013-08-18 21:10:00,66.1,58.7,30.06,WSW,243,0.0,6.0,77,0.00,,,0.00,Wunderground v.1.15,2013-08-19 07:10:00,
2013-08-18 21:15:00,65.8,58.4,30.06,WSW,244,0.0,6.0,77,0.00,,,0.00,Wunderground v.1.15,2013-08-19 07:15:00,
2013-08-18 21:20:00,65.5,58.1,30.06,WSW,243,0.0,6.0,77,0.00,,,0.00,Wunderground v.1.15,2013-08-19 07:20:00,
2013-08-18 21:25:00,65.2,57.8,30.06,WSW,243,0.0,6.0,77,0.00,,,0.00,Wunderground v.1.15,2013-08-19 07:25:00,
2013-08-18 21:30:00,65.1,57.7,30.06,WSW,243,0.0,6.0,77,0.00,,,0.00,Wunderground v.1.15,2013-08-19 07:30:00,
2013-08-18 21:35:00,64.9,57.9,30.06,WSW,244,0.0,6.0,78,0.00,,,0.00,Wunderground v.1.15,2013-08-19 07:35:00,
2013-08-18 21:40:00,64.7,57.7,30.06,WSW,243,0.0,6.0,78,0.00,,,0.00,Wunderground v.1.15,2013-08-19 07:40:00,
2013-08-18 21:50:00,64.6,57.6,30.07,WSW,244,1.0,6.0,78,0.00,,,0.00,Wunderground v.1.15,2013-08-19 07:50:00,
2013-08-18 21:55:00,64.7,57.7,30.07,WSW,243,1.0,6.0,78,0.00,,,0.00,Wunderground v.1.15,2013-08-19 07:55:00,
2013-08-18 22:00:00,64.9,57.5,30.07,WSW,244,1.0,1.0,77,0.00,,,0.00,Wunderground v.1.15,2013-08-19 08:00:00,
2013-08-18 22:05:00,64.8,57.8,30.07,WSW,243,2.0,2.0,78,0.00,,,0.00,Wunderground v.1.15,2013-08-19 08:05:00,
2013-08-18 22:10:00,64.7,57.7,30.07,WSW,244,2.0,6.0,78,0.00,,,0.00,Wunderground v.1.15,2013-08-19 08:10:00,
2013-08-18 22:15:00,64.5,57.5,30.07,WSW,243,2.0,6.0,78,0.00,,,0.00,Wunderground v.1.15,2013-08-19 08:15:00,
2013-08-18 22:20:00,64.3,57.3,30.08,WSW,244,3.0,3.0,78,0.00,,,0.00,Wunderground v.1.15,2013-08-19 08:20:00,
2013-08-18 22:25:00,64.4,57.4,30.08,WSW,244,3.0,4.0,78,0.00,,,0.00,Wunderground v.1.15,2013-08-19 08:25:00,
2013-08-18 22:30:00,64.4,57.7,30.07,WSW,244,4.0,4.0,79,0.00,,,0.00,Wunderground v.1.15,2013-08-19 08:30:00,
2013-08-18 22:40:00,64.1,57.5,30.07,WSW,244,4.0,4.0,79,0.00,,,0.00,Wunderground v.1.15,2013-08-19 08:40:00,
2013-08-18 22:45:00,64.0,57.4,30.07,WSW,244,4.0,6.0,79,0.00,,,0.00,Wunderground v.1.15,2013-08-19 08:45:00,
2013-08-18 22:50:00,63.8,57.2,30.07,WSW,243,4.0,6.0,79,0.00,,,0.00,Wunderground v.1.15,2013-08-19 08:50:00,
2013-08-18 22:55:00,63.7,57.4,30.07,WSW,244,4.0,6.0,80,0.00,,,0.00,Wunderground v.1.15,2013-08-19 08:55:00,
2013-08-18 23:00:00,63.5,57.2,30.07,WSW,244,4.0,6.0,80,0.00,,,0.00,Wunderground v.1.15,2013-08-19 09:00:00,
2013-08-18 23:10:00,63.1,57.2,30.07,WSW,243,4.0,4.0,81,0.00,,,0.00,Wunderground v.1.15,2013-08-19 09:10:00,
2013-08-18 23:15:00,63.1,57.2,30.07,WSW,244,3.0,6.0,81,0.00,,,0.00,Wunderground v.1.15,2013-08-19 09:15:00,
2013-08-18 23:20:00,63.0,57.1,30.07,WSW,244,3.0,6.0,81,0.00,,,0.00,Wunderground v.1.15,2013-08-19 09:20:00,
2013-08-18 23:25:00,63.0,57.1,30.07,WSW,244,3.0,6.0,81,0.00,,,0.00,Wunderground v.1.15,2013-08-19 09:25:00,
2013-08-18 23:30:00,63.0,57.1,30.07,WSW,243,4.0,4.0,81,0.00,,,0.00,Wunderground v.1.15,2013-08-19 09:30:00,
2013-08-18 23:35:00,63.0,57.1,30.07,WSW,244,3.0,6.0,81,0.00,,,0.00,Wunderground v.1.15,2013-08-19 09:35:00,
2013-08-18 23:45:00,62.7,57.1,30.07,WSW,244,2.0,6.0,82,0.00,,,0.00,Wunderground v.1.15,2013-08-19 09:45:00,
2013-08-18 23:50:00,62.6,57.0,30.07,WSW,244,2.0,6.0,82,0.00,,,0.00,Wunderground v.1.15,2013-08-19 09:50:00,
2013-08-18 23:55:00,62.5,56.9,30.07,WSW,244,2.0,6.0,82,0.00,,,0.00,Wunderground v.1.15,2013-08-19 09:55:00,